Overview Statistics Trail Chart Weather Telemetry Raw packets
 

This is the latest recevied weather packets stored in our database for station/object K1NOT-WX. If no packets are shown the sender has not sent any weather packets the latest 10 day(s).

<< 3 4 5 6 7 8 9 >>
Time Temp. Humidity Pressure Rain* Wind** Luminosity Snow
1777642032 10° C 84% 1007.8 hPa 0 mm - - -
1777641132 10.56° C 83% 1007.8 hPa 0 mm - - -
1777640232 10.56° C 84% 1007.8 hPa 0 mm - - -
1777639332 10° C 84% 1007.8 hPa 0 mm - - -
1777638432 10.56° C 81% 1007.4 hPa 0 mm - - -
1777637532 10.56° C 80% 1007.4 hPa 0 mm - - -
1777636632 11.11° C 80% 1007.4 hPa 0 mm - - -
1777635732 11.67° C 75% 1007.8 hPa 0 mm - - -
1777634832 12.22° C 75% 1007.4 hPa 0 mm - - -
1777633932 12.22° C 76% 1007.1 hPa 0 mm - - -
1777633032 12.22° C 75% 1007.4 hPa 0 mm - - -
1777632132 12.78° C 75% 1007.4 hPa 0 mm - - -
1777631232 12.78° C 76% 1007.4 hPa 0 mm - - -
1777630332 12.78° C 76% 1007.1 hPa 0 mm - - -
1777629432 12.78° C 77% 1007.4 hPa 0 mm - - -
1777628532 12.22° C 80% 1007.4 hPa 0 mm - - -
1777627632 12.22° C 82% 1007.4 hPa 0 mm - - -
1777626733 12.78° C 80% 1007.4 hPa 0 mm - - -
1777625833 12.78° C 79% 1007.4 hPa 0 mm - - -
1777624933 12.78° C 78% 1007.4 hPa 0 mm - - -
1777624033 12.78° C 76% 1007.8 hPa 0 mm - - -
1777623133 12.78° C 77% 1007.8 hPa 0 mm - - -
1777622233 12.78° C 78% 1007.8 hPa 0 mm - - -
1777621333 13.33° C 77% 1007.8 hPa 0 mm - - -
1777620433 13.33° C 76% 1008.1 hPa 0 mm - - -

* Rain latest hour (hover to see other rain measurements)
** Current wind speed in m/s (hover to see current wind gust speed)